www.pogodaiklimat.ru

Погода и климат >> Архив погоды >> Россия >> Адыгея >> Гузерипль


ПОГОДА в Гузерипле

  • Прогноз погоды в Гузерипле
  • Монитор погоды в Гузерипле

АРХИВ ПОГОДЫ в Гузерипле

Время (UTC), дата Ветер
(напр.,м/с)
 
Видим.   Явления Облачность Т
(С)
Тd
(С)
f
(%)
Тe
(С)
Тes
(С)
Комфортность P
(гПа)
Po
(гПа)
Тmin
(С)
Tmax
(С)
R
(мм)
R24
(мм)
S
(см)
03 13.03 ЮЗ 1 4000 м ливневой дождь 10/10 600 м
[Cb cap]
+6.3 +6.0 98 +5 +5 1011.1 931.3 +6.3 13
06 13.03 ЮЗ 1 10 км слаб. ливневой дождь 10/10 600 м
[Cb cap]
+7.4 +7.4 100 +6 +6 1009.8 930.4 +6.0
09 13.03 ЮЗ 2 10 км слаб. ливневой дождь 10/10 600 м
[Cb cap]
+7.2 +7.0 99 +5 +5 1009.8 930.4
12 13.03 В 2 10 км слаб. ливневой дождь 10/10 600 м
[Cb cap]
+3.9 +3.2 95 +1 +1 1011.5 930.9
15 13.03 В 3 10 км слаб. ливневой дождь 10/10 300 м
[Cb cap]
+1.8 +0.9 94 -3 -3 1014.5 933.1 +7.9 19
18 13.03 штиль 0 4000 м слаб. ливневой снег [диам. отлож. мокр. снега 3 мм] 10/10 300 м
[Cb cap]
+0.3 +0.3 100 -1 -1 1017.2 935.1
21 13.03 штиль 0 10 км слаб. ливневой снег [диам. отлож. мокр. снега 6 мм] 10/10 300 м
[Cb cap]
+0.4 +0.1 98 -1 -1 1017.4 935.3
00 14.03 штиль 0 10 км слаб. ливневой снег [диам. отлож. мокр. снега 8 мм] 10/10 300 м
[Cb cap]
+0.3 -0.1 97 -1 -1 1018.4 936.2
03 14.03 штиль 0 10 км слаб. ливневой снег [диам. отлож. мокр. снега 10 мм] 10/10 300 м
[Cb cap]
-0.0 -0.0 100 -1 -1 1018.6 936.3 -0.0 9 3
06 14.03 штиль 0 20 км в посл. час ливневой снег [диам. отлож. мокр. снега 10 мм] 10/10 600 м
[Cb cap]
+1.1 +1.1 100 -0 -0 1017.7 935.8 -0.0
09 14.03 В 1 20 км 8/8 1000 м
[Cb cap]
+5.2 +1.4 76 +4 +7 1014.7 934.2
12 14.03 ЮВ 1 20 км 9/9 600 м
[Cb cap]
+6.4 +3.5 82 +5 +6 1013.3 933.3
15 14.03 штиль 0 20 км 9/9 1000 м
[Cb cap]
+5.4 +5.1 98 +4 +4 1013.0 932.7 +7.4 2
18 14.03 ЮЗ 1 20 км 10/10 600 м
[Cb cap]
+3.9 +3.8 99 +2 +2 1012.8 932.1
21 14.03 ЮЗ 1 20 км 10/10 600 м
[Cb cap]
+3.5 +3.4 99 +2 +2 1011.7 931.0
00 15.03 З 1 20 км 10/10 600 м
[Cb cap]
+2.9 +2.8 99 +1 +1 1011.0 930.2
03 15.03 З 1 20 км 10/10 600 м
[Cb cap]
+2.6 +2.5 99 +1 +1 1010.9 930.0 +2.6
06 15.03 штиль 0 20 км 10/10 600 м
[Cb cap]
+3.4 +3.1 98 +2 +2 1010.0 929.4 +2.3
09 15.03 В 1 20 км 10/10 1000 м
[Sc]
+9.6 +5.4 75 +9 +9 1006.7 928.1
12 15.03 СВ 2 20 км 10/10 1000 м
[Sc diur, vesp]
+10.7 +5.3 69 +10 +10 1005.9 927.6
15 15.03 штиль 0 10 км слаб. ливневой дождь 10/10 600 м
[Cb cap]
+7.3 +7.1 99 +6 +6 1008.5 929.1 +11.6 2
18 15.03 штиль 0 10 км слаб. ливневой дождь 10/10 600 м
[Cb cap]
+5.6 +5.6 100 +4 +4 1008.2 928.4
21 15.03 штиль 0 10 км слаб. ливневой дождь 10/10 600 м
[Cb cap]
+5.5 +5.5 100 +4 +4 1008.9 929.0
00 16.03 ЮЗ 1 10 км слаб. ливневой дождь 10/10 600 м
[Cb cap]
+5.3 +5.3 100 +4 +4 1008.8 928.9
03 16.03 штиль 0 20 км {ливн. осадки} 10/10 1000 м
[Cb cap]
+4.8 +4.8 100 +4 +4 1009.1 929.0 +4.8 3
06 16.03 штиль 0 10 км слаб. ливневой дождь 10/10 600 м
[Cb cap]
+5.4 +5.2 99 +4 +4 1008.9 929.0 +4.8
09 16.03 В 2 10 км слаб. ливневой дождь 10/10 1000 м
[Cb cap]
+6.6 +5.6 93 +4 +4 1008.2 928.7
12 16.03 В 1 20 км {ливн. осадки} 10/10 600 м
[Cb cap]
+8.4 +5.2 80 +8 +8 1007.2 928.2
15 16.03 ЮЗ 1 20 км 10/10 1000 м
[Cb cap]
+6.1 +4.8 91 +5 +5 1008.8 929.0 +8.5 3
18 16.03 штиль 0 10 км слаб. ливневой дождь 10/10 600 м
[Cb cap]
+4.6 +4.3 98 +3 +3 1010.8 930.5
21 16.03 З 1 20 км {ливн. осадки} 9/9 1000 м
[Cb cap]
+3.5 +3.2 98 +2 +2 1010.4 929.8
00 17.03 З 1 20 км {ливн. осадки} 8/8 1000 м
[Cb cap]
+3.1 +3.0 99 +1 +1 1008.9 928.3
03 17.03 штиль 0 10 км слаб. ливневой дождь 9/9 600 м
[Cb cap]
+2.8 +2.8 100 +1 +1 1008.3 927.7 +2.7 0.7
06 17.03 З 2 10 км слаб. ливневой дождь 10/10 600 м
[Cb cap]
+3.5 +2.8 95 0 0 1009.7 929.1
09 17.03 Ю 1 20 км {ливн. осадки} 10/10 1000 м
[Cb cap]
+5.4 -0.1 68 +5 +5 1010.6 930.4
12 17.03 В 2 20 км {ливн. осадки} 10/10 1000 м
[Cb cap]
+5.8 -1.0 62 +4 +4 1012.0 931.9
15 17.03 В 1 20 км 8/8 1000 м
[Cb cap]
+5.0 -2.6 58 +4 +4 1015.4 934.7 +6.7 3
18 17.03 З 1 20 км 3/3 1000 м
[Sc diur, vesp]
+1.3 -0.6 87 -1 -1 1019.1 937.2
21 17.03 штиль 0 20 км 5/5 1000 м
[Sc diur, vesp]
+0.8 -0.6 90 -0 -0 1020.2 938.0
00 18.03 З 1 20 км 8/8 1000 м
[Cb cap]
+0.7 +0.1 96 -1 -1 1021.1 938.8
03 18.03 штиль 0 20 км 3/3 1000 м
[Sc diur, vesp]
-1.2 -1.2 100 -3 -3 1022.9 939.9 -1.2
06 18.03 Ю 1 20 км 4/3 1000 м
[Sc Ci]
+1.8 -0.1 87 0 +4 1023.5 941.3 -1.5
09 18.03 СЗ 1 20 км 8/8 1000 м
[Sc]
+7.6 -3.2 46 +7 +10 1021.6 941.1
12 18.03 В 2 20 км 6/6 1000 м
[Sc]
+7.5 -2.7 48 +6 +9 1021.9 941.4
15 18.03 З 1 20 км 6/6 1000 м
[Sc]
+3.9 +1.9 87 +2 +2 1024.3 942.7 +9.6
18 18.03 штиль 0 20 км 6/6 1000 м
[Sc]
+1.7 +1.5 99 0 0 1025.8 943.4
21 18.03 З 1 20 км 6/6 1500 м
[Sc]
+0.2 +0.2 100 -2 -2 1026.4 943.5
00 19.03 Ю 1 4000 м дымка 5/0
[Ac trans Ci]
-1.0 -1.0 100 -3 -3 1027.3 944.0
03 19.03 штиль 0 4000 м дымка 3/0
[Ac trans]
-1.8 -1.8 100 -3 -3 1027.9 944.3 -1.8
06 19.03 штиль 0 20 км ясно +3.0 -0.0 81 +2 +9 1026.0 943.9 -2.0
09 19.03 В 3 20 км ясно +11.9 -1.3 40 +11 +20 1021.0 941.8
12 19.03 Ю 1 20 км ясно +15.9 -1.9 29 +17 +25 1018.7 940.7
15 19.03 штиль 0 20 км ясно +11.6 +0.6 47 +11 +12 1019.9 940.7 +16.1
18 19.03 З 1 20 км ясно +3.4 +2.0 91 +2 +2 1023.9 942.2
21 19.03 З 1 20 км ясно +0.2 +0.2 100 -2 -2 1024.9 942.1
00 20.03 ЮЗ 1 20 км ясно -1.3 -1.3 100 -4 -4 1025.1 941.9

 

Местоположение метеостанции Гузерипль (Адыгея, Россия): широта 44.00 долгота 40.13 высота над уровнем моря 677 м.

В архиве по умолчанию представлена погода в Гузерипле за последнюю неделю. Архивные данные за месяц целиком и за предыдущие месяцы, начиная с января 2011 года, Вы можете получить, выбрав интересующий диапазон дат из раскрывающегося списка и нажав кнопку "Ввод!".


*Определитесь, кто Вы:
робот инопланетянин человек

Внимание! Время в таблицах - всемирное. Для получения местного времени необходимо прибавить поправку, которая равна 3 ч.

Смотрите также архив погоды в соседних городах и на ближайших метеорологических станциях:

Погода в Красной Поляне (Краснодарский край, Россия) (36 км)
Погода на Кордоне Лаура (Краснодарский край, Россия) (36 км)
Погода в Горная Карусель 1500 (Краснодарский край, Россия) (41 км)
Погода в Горная Карусель 1000 (Краснодарский край, Россия) (41 км)
Погода в Кепше (Краснодарский край, Россия) (43 км)
Погода в Солох Ауле (Краснодарский край, Россия) (46 км)
Погода в Шунтуке (Адыгея, Россия) (52 км)
Погода в Кичмае (Краснодарский край, Россия) (53 км)
Погода в Псебае (Краснодарский край, Россия) (54 км)
Погода в Сочи (Краснодарский край, Россия) (55 км)

Пояснения к столбцам:

Ветер - указаны скорость ветра в м/с - средняя за 10 мин, порывы в срок и между сроками (в фигурных скобках) и направление, откуда дует ветер: С - северный, СВ - северо-восточный, В - восточный, ЮВ - юго-восточный, Ю - южный, ЮЗ - юго-западный, З - западный, СЗ - северо-западный.
Видимость - горизонтальная дальность видимости в метрах или километрах. При видимости от 1 до 10 км при отсутствии осадков обычно наблюдается дымка, при ухудшении видимости до 1 км и менее - туман. В сухую погоду видимость может ухудшаться дымом, пылью или мглою.
Явления - указаны атмосферные явления, наблюдавшиеся в срок или в последний час перед сроком; фигурными скобками обозначены явления, наблюдавшиеся между сроками (за 1-3 часа до срока); квадратными скобками обозначены град или гололедные отложения с указанием их диаметра в мм.
Облачность - указаны через наклонную черту общая и нижняя облачность в баллах и высота нижней границы облаков в метрах; квадратными скобками обозначены формы облаков: Ci - перистые, Cs - перисто-слоистые, Cc - перисто-кучевые, Ac - высококучевые, As - высокослоистые, Sc - слоисто-кучевые, Ns - слоисто-дождевые, Cu - кучевые, Cb - кучево-дождевые. Подробнее классификацию облаков см. в Атласе облаков (PDF).
T - Температура воздуха - температура, измеренная на высоте 2 м над землей.
Td - Температура точки росы - температура, при понижении до которой содержащийся в воздухе водяной пар достигнет насыщения.
f - Относительная влажность воздуха - влажноcть воздуха, измеренная на высоте 2 м над землей.
Te - Эффективная температура - температура, которую ощущает одетый по сезону человек в тени. Характеристика душности погоды. При расчете учитывается влияние влажности воздуха и скорости ветра на теплоощущения человека.
Tes - Эффективная температура на солнце - температура, которую ощущает человек, с поправкой на солнечный нагрев. Характеристика знойности погоды. Зависит от высоты солнца над горизонтом, облачности и скорости ветра. Ночью, в пасмурную погоду, а также при ветре 12 м/с и более поправка равна нулю.
P - Атмосферное давление - приведенное к уровню моря атмосферное давление.
Po - Атмосферное давление - измеренное на уровне метеостанции атмосферное давление.
Tmin - Минимальная температура - минимум температуры воздуха на высоте 2 м над землей.
Tmax - Максимальная температура - максимум температуры воздуха на высоте 2 м над землей.
R - Количество осадков - Количество выпавших осадков за период времени, мм. При наведении курсора мыши на число - период времени, за который выпало указанное количество осадков.
R24 - Количество осадков - Количество выпавших осадков за 24 часа, мм.
S - Снежный покров - Высота снежного покрова, см. При наведении курсора мыши на число - состояние снежного покрова и степень покрытия местности в баллах.